Regional Weather Roundup
Issued by NWS

Home | Current Version | Previous Version | Graphics & Text | Print | Product List | Glossary On
Versions: 1 2 3 4 5 6 7 8 9 10 11 12 13 14 15 16 17 18 19 20 21 22 23 24 25 26 27 28 29 30 31 32 33 34 35 36 37 38 39 40 41 42 43 44 45 46 47 48 49 50
000
ASUS43 KFSD 302310
RWRSD

WEATHER ROUNDUP FOR SOUTH DAKOTA
NATIONAL WEATHER SERVICE SIOUX FALLS SD
600 PM CDT SAT APR 30 2016

NOTE: "FAIR" INDICATES FEW OR NO CLOUDS BELOW 12,000 FEET WITH NO
SIGNIFICANT WEATHER AND/OR OBSTRUCTIONS TO VISIBILITY.


SDZ001>005-009-010-012>017-010000-
NORTHWEST AND NORTH CENTRAL SOUTH DAKOTA

CITY           SKY/WX    TMP DP  RH WIND       PRES   REMARKS
BUFFALO          N/A     53  29  39 NE18G33   30.11R
FAITH            N/A     56  27  32 NE26G32   30.11R
MOBRIDGE       PTSUNNY   60  31  33 NE16G31   30.10R
$$

SDZ012>016-024>037-041>051-057-063-072>074-010000-
SOUTHWEST AND SOUTH CENTRAL SOUTH DAKOTA

CITY           SKY/WX    TMP DP  RH WIND       PRES   REMARKS
RAPID CTY ARPT CLOUDY    50  31  48 NE24G30   30.10R
PIERRE         CLOUDY    54  36  50 NE24G30   30.05R
CUSTER         CLOUDY    39  29  67 NE17G28   30.08R
ELLSWORTH AFB  CLOUDY    51  30  45 NE21G28   30.10R
PHILIP         CLOUDY    52  33  48 NE28G33   30.07R
PINE RIDGE     LGT RAIN  45  31  58 NE21G31   30.04R
WINNER         LGT RAIN  44  39  82 NE22G35   30.00R
$$

SDZ004>011-016>023-039-040-010000-
NORTHEAST SOUTH DAKOTA

CITY           SKY/WX    TMP DP  RH WIND       PRES   REMARKS
ABERDEEN       CLOUDY    59  32  36 NE22G29   30.08S
WATERTOWN      CLOUDY    53  33  46 NE23G29   30.04R
BROOKINGS      CLOUDY    50  36  58 NE18      30.00R
SISSETON         N/A     59  32  36 E15       30.07R
$$

SDZ017-020-022-023-036>040-048>070-010000-
SOUTHEAST SOUTH DAKOTA

CITY           SKY/WX    TMP DP  RH WIND       PRES   REMARKS
SIOUX FALLS    LGT RAIN  44  40  85 E21G30    29.98R
HURON          CLOUDY    52  37  56 NE16      30.03R
CHAMBERLAIN    RAIN      46  44  92 NE13G21   30.02R
MITCHELL       RAIN      46  42  86 NE21      30.02R FOG
YANKTON        CLOUDY    45  41  87 NE22G31   29.90R
$$

ABBREVIATIONS USED IN REMARKS
   TC - TEMPERATURE IN CELSIUS
  WCI - WIND CHILL INDEX
   HX - HEAT INDEX
  VSB - VISIBILITY





USA.gov is the U.S. government's official web portal to all federal, state and local government web resources and services.